Aérodrome :
LOGIN :

S'inscrire | Disclaimer

   EN    FR    IT 

 










Légende :    VFR   VFR Marginal   IFR   IFR Intensif   IFR Très Intensif
Visi : 
Plafond : 
>= 8 km
>= 3000ft
5 à 8 km
1000 à 3000 ft
1500m à 5 km
500 à 1000 ft
800 à 1500m
200 à 500 ft
< 800m
< 200 ft
Symboles :   Orages  Brouillard  Fortes neiges  Fortes précipitations  Vent > 20 kt
SIGMETs :   Divers  Orages  Givrage  Turbulence  Onde Orograph.  Cendres Volcan.







- Altitude de l'aérodrome : 156 ft
- Code IATA : LCC


LIBN - Lecce Galatine (military)

METARs EXPIRÉS :
  • 241355Z 04009KT 9999 FEW035 35/10 Q1014 RMK FEW VIS MIN 9999 WIND THR14 04012KT WIND THR32 03010KT BLU
  • 241255Z 36008KT CAVOK 36/10 Q1014 RMK SKC VIS MIN 9999 WIND THR14 36008KT WIND THR32 36007KT BLU
  • 241155Z 04008KT CAVOK 35/09 Q1015 RMK FEW FEW200 VIS MIN 9999 WIND THR14 35007KT WIND THR32 03007KT BLU

Prévision TAF périmée.
Pas de NOTAMs connus pour ce terrain.



MET'MAP, la Météo Aéronautique d'un coup d'oeil ! - Copyright ORBIFLY Décembre 2007 - Disclaimer

ORBIFLY MET'MAP TEAM :

Programmation & Développement : Alexandra Zaïnal
Conception & Développement : Baudouin d'Aumeries
Co-Programmation & Développement : Marc-Olivier Méhu
Soutien technique & logistique : Manuel Goepfert

Contact : metmap@orbifly.com




SOURCES & CREDITS :

   NOAA